E1763 Weather Reports


Display with metric or nautical units.
time (UTC)temp
F
wind
direction
speed
MPH
gust
MPH
rain 1hr
in
rain 24hr
in
rain mn
in
humidity
%
barometer
mb
20260510201552 66 5 0.0 0.0 0.00 0.01 0.01 85 1010.3
20260510200052 64 77 0.0 0.0 0.00 0.01 0.01 88 1010.5
20260510194545 62 355 0.0 0.0 0.00 0.01 0.01 90 1010.5
20260510193034 60 24 0.0 0.0 0.00 0.01 0.01 93 1010.7
20260510191550 59 19 0.0 0.0 0.00 0.01 0.01 94 1010.8
20260510190030 58 348 0.0 0.0 0.00 0.01 0.01 96 1010.9
20260510184524 57 292 0.0 0.0 0.00 0.01 0.01 96 1010.9
20260510183023 56 21 0.0 0.0 0.00 0.01 0.01 96 1011.0
20260510181521 56 21 0.0 0.0 0.00 0.01 0.01 97 1010.9
20260510180022 56 355 0.0 0.0 0.00 0.01 0.01 97 1011.0
20260510174517 55 38 0.0 0.0 0.00 0.01 0.01 97 1011.0
20260510173016 54 347 0.0 0.0 0.00 0.01 0.01 97 1010.9
20260510171515 54 67 0.0 0.0 0.00 0.01 0.01 97 1011.0
20260510170116 54 183 0.0 0.0 0.00 0.01 0.01 97 1010.9
20260510164517 53 103 0.0 0.0 0.00 0.01 0.01 97 1010.9
20260510163012 53 111 0.0 0.0 0.00 0.01 0.01 97 1010.9
20260510161509 53 55 0.0 0.0 0.00 0.01 0.01 97 1010.9
20260510160011 52 88 0.0 0.0 0.00 0.01 0.01 97 1010.9
20260510154506 52 12 0.0 0.0 0.00 0.01 0.01 97 1010.7
20260510153007 52 305 0.0 0.0 0.00 0.01 0.01 97 1010.7
20260510151505 52 20 0.0 0.0 0.00 0.01 0.01 97 1010.7
20260510150004 52 32 0.0 0.0 0.00 0.01 0.01 97 1010.5
20260510144502 51 19 0.0 0.0 0.00 0.01 0.01 97 1010.5
20260510143002 51 340 0.0 0.0 0.00 0.01 0.01 97 1010.4
20260510141702 51 79 0.0 0.0 0.00 0.01 0.01 97 1010.2
20260510140059 51 18 0.0 0.0 0.00 0.01 0.01 97 1010.0
20260510134605 50 53 0.0 0.0 0.00 0.01 0.01 96 1009.9
20260510133058 50 5 0.0 0.0 0.00 0.01 0.01 96 1009.8
20260510131559 50 128 0.0 0.0 0.00 0.01 0.01 96 1009.7
20260510130056 50 5 0.0 0.0 0.00 0.01 0.01 96 1009.7
20260510124610 50 323 0.0 0.0 0.00 0.01 0.01 96 1009.8
20260510123055 51 348 0.0 0.0 0.00 0.01 0.01 96 1009.8
20260510121552 51 346 0.0 0.0 0.00 0.01 0.01 96 1009.8
20260510120051 51 23 0.0 0.0 0.00 0.01 0.01 96 1009.7
20260510114550 51 23 0.0 0.0 0.00 0.01 0.01 96 1009.7
20260510113051 51 51 0.0 0.0 0.00 0.01 0.01 96 1009.7
20260510111549 51 327 0.0 0.0 0.00 0.01 0.01 96 1009.8
20260510110048 51 209 0.0 0.0 0.00 0.01 0.01 96 1009.8
20260510104557 51 209 0.0 0.0 0.00 0.01 0.01 96 1009.7
20260510103046 51 165 0.0 0.0 0.00 0.01 0.01 96 1009.6
20260510101545 51 165 0.0 0.0 0.00 0.01 0.01 96 1009.5
20260510100044 51 165 0.0 0.0 0.00 0.01 0.01 96 1009.4
20260510094554 51 157 0.0 0.0 0.00 0.01 0.01 96 1009.6
20260510093055 51 157 0.0 0.0 0.00 0.01 0.01 96 1009.6
20260510091544 51 157 0.0 0.0 0.00 0.01 0.01 96 1009.7
20260510090038 51 207 0.0 0.0 0.00 0.01 0.01 96 1010.0
20260510084537 51 216 0.0 0.0 0.01 0.01 0.01 96 1009.9
20260510083035 52 184 0.0 0.0 0.01 0.01 0.01 96 1010.1
20260510081534 52 174 0.0 0.0 0.01 0.01 0.01 96 1010.0
20260510080038 52 174 0.0 0.0 0.01 0.01 0.01 96 1010.0
20260510074532 52 183 0.0 0.0 0.00 0.00 0.00 96 1010.1
20260510073040 52 205 0.0 0.0 0.00 0.00 0.00 96 1010.1
20260510071529 52 187 0.0 0.0 0.00 0.00 0.00 96 1010.2
20260510070030 52 196 0.0 0.0 0.00 0.00 0.00 96 1010.3
20260510064526 52 196 0.0 0.0 0.00 0.00 0.00 95 1010.4
20260510063026 52 196 0.0 0.0 0.00 0.00 0.00 95 1010.4
20260510061524 52 196 0.0 0.0 0.00 0.00 0.00 95 1010.3
20260510060026 52 196 0.0 0.0 0.00 0.00 0.00 95 1010.4
20260510054524 52 196 0.0 0.0 0.00 0.00 0.00 95 1010.5
20260510053045 52 196 0.0 0.0 0.00 0.00 0.00 95 1010.6
20260510051522 52 265 0.0 0.0 0.00 0.00 0.00 95 1010.6
20260510050121 52 227 0.0 0.0 0.00 0.00 0.00 94 1010.6
20260510044521 53 173 0.0 0.0 0.00 0.00 0.00 94 1010.6
20260510043037 53 350 0.0 0.0 0.00 0.00 0.00 94 1010.4
20260510041525 53 350 0.0 0.0 0.00 0.00 0.00 94 1010.3
20260510040033 53 254 0.0 0.0 0.00 0.00 0.00 93 1010.2
20260510034519 53 254 0.0 0.0 0.00 0.00 0.00 93 1010.2
20260510033019 54 227 0.0 0.0 0.00 0.00 0.00 93 1010.3
20260510031523 54 303 0.0 0.0 0.00 0.00 0.00 92 1010.2
20260510030018 54 17 0.0 0.0 0.00 0.00 0.00 92 1010.1
20260510024517 54 19 0.0 0.0 0.00 0.00 0.00 91 1010.2
20260510023016 55 355 0.0 0.0 0.00 0.00 0.00 91 1010.2
20260510021531 55 5 0.0 0.0 0.00 0.00 0.00 91 1010.2
20260510020014 55 319 0.0 0.0 0.00 0.00 0.00 90 1010.4
20260510014514 55 261 0.0 0.0 0.00 0.00 0.00 88 1010.4
20260510013022 57 306 0.0 0.0 0.00 0.00 0.00 86 1010.3
20260510011512 59 258 0.0 0.0 0.00 0.00 0.00 84 1010.5
20260510010011 60 197 0.0 0.0 0.00 0.00 0.00 81 1010.5
20260510004512 61 215 0.0 0.0 0.00 0.00 0.00 81 1010.5
20260510003009 62 5 0.0 0.0 0.00 0.00 0.00 78 1010.6
20260510001509 65 345 0.0 0.0 0.00 0.00 0.00 75 1010.6
20260510000005 65 208 0.0 0.0 0.00 0.00 0.00 78 1010.5
20260509234504 64 251 0.0 0.0 0.00 0.00 0.00 76 1010.6
20260509233103 65 273 0.0 0.0 0.00 0.00 0.00 75 1010.7
20260509231501 66 261 0.0 0.0 0.00 0.00 0.00 79 1010.7
20260509224600 66 275 0.0 0.0 0.00 0.00 0.00 77 1010.8
20260509223102 65 259 0.0 0.0 0.00 0.00 0.00 75 1010.9
20260509221556 64 211 0.0 0.0 0.00 0.00 0.00 79 1011.2
20260509220054 64 260 0.0 0.0 0.00 0.00 0.00 77 1011.2
20260509214619 65 265 0.0 0.0 0.00 0.00 0.00 77 1011.3
20260509213052 65 223 0.0 0.0 0.00 0.00 0.00 79 1011.4
20260509211551 65 252 0.0 0.0 0.00 0.00 0.00 77 1011.4
20260509210052 67 216 0.0 0.0 0.00 0.00 0.00 75 1011.4
20260509204548 67 191 0.0 0.0 0.00 0.00 0.00 75 1011.3
20260509203058 66 223 0.0 0.0 0.00 0.00 0.00 77 1011.3